Regional Weather Roundup
Issued by NWS Sterling, VA

Home | Current Version | Previous Version | Text Only | Print | Product List | Glossary On
Versions: 1 2 3 4 5 6 7 8 9 10 11 12 13 14 15 16 17 18 19 20 21 22 23 24 25 26 27 28 29 30 31 32 33 34 35 36 37 38 39 40 41 42 43 44 45 46 47 48 49 50
000
ASUS41 KLWX 282011
RWRLWX

REGIONAL WEATHER ROUNDUP
NATIONAL WEATHER SERVICE BALTIMORE MD/WASHINGTON DC
400 PM EDT WED SEP 28 2016

Note: "FAIR" indicates few or no clouds below 12,000 feet
with no significant weather and/or obstructions to visibility.
 TC=TEMPERATURE CELSIUS

 * =Non NWS site. Station does not report precipitation (e.g. rain,
    snow, etc.), thunder, or fog.

DCZ001-MDZ009-015-VAZ040>042-051-053>054-282100-
WASHINGTON METRO

CITY           SKY/WX    TMP DP  RH WIND       PRES   REMARKS
WASHINGTON NAT CLOUDY    69  67  93 NE8       29.99S
DULLES         LGT RAIN  66  64  93 NE9       30.00S FOG
ANDREWS AFB    DRIZZLE   68  66  93 NE7       29.98F
FT BELVOIR     CLOUDY    68  66  94 E1        29.98S
QUANTICO       CLOUDY    70  66  87 E8        29.98F
COLLEGE PARK*  CLOUDY    66  63  88 NE6       29.99F
LEESBURG*      LGT RAIN  64  64 100 N7        30.01F
MANASSAS*      CLOUDY    68  68 100 VRB5      29.99S
GAITHERSBURG*  CLOUDY    64  61  88 CALM      30.05R

$$

MDZ006>007-011-014-282100-
BALTIMORE METRO

CITY           SKY/WX    TMP DP  RH WIND       PRES   REMARKS
BWI AIRPORT    LGT RAIN  67  63  87 NE14      30.00F
MD SCIENCE CTR   N/A     69  62  78 MISG      30.02S
MARTIN STATE   PTSUNNY   70  68  94 NE5       30.02F
ANNAPOLIS        N/A    N/A N/A N/A MISG      29.99F
FORT MEADE*    CLOUDY    64  63  94 E5        30.03F

$$

MDZ012-015-019>023-282100-
MARYLAND EASTERN SHORE

CITY           SKY/WX    TMP DP  RH WIND       PRES   REMARKS
OCEAN CITY     LGT RAIN  74  70  87 E14G22    29.99F
SALISBURY      CLOUDY    71  69  93 E10       30.00S
BAY BRIDGE AP* CLOUDY    72  66  83 MISG      29.99F
CAMBRIDGE*     PTSUNNY   70  64  83 E12       29.99S
EASTON*        PTSUNNY   73  66  78 E14       30.03S

$$

MDZ017>025-282100-
SOUTHERN MARYLAND

CITY           SKY/WX    TMP DP  RH WIND       PRES   REMARKS
PATUXENT RIVER TSTM      70  66  87 SE20G28   29.96F FOG
ST INIGOES     LGT RAIN  72  69  90 E13G21    29.96F
LEONARDTOWN*   CLOUDY    68  64  88 E7        29.98F

$$

MDZ003>005-282100-
NORTH CENTRAL MARYLAND

CITY           SKY/WX    TMP DP  RH WIND       PRES   REMARKS
FREDERICK*     HVY RAIN  66  66 100 N5        30.06R
HAGERSTOWN APT CLOUDY    68  55  63 E8        30.03S

$$

MDZ501>502-282100-
WESTERN MARYLAND

CITY           SKY/WX    TMP DP  RH WIND       PRES   REMARKS
OAKLAND*         N/A     54  54 100 E17       30.01S FOG
CUMBERLAND*    CLOUDY    66  57  72 E3        30.04F

$$

VAZ025>031-282100-
SHENANDOAH VALLEY

CITY           SKY/WX    TMP DP  RH WIND       PRES   REMARKS
WINCHESTER*    CLOUDY    66  61  82 NE3       30.00F
FRONT ROYAL*   CLOUDY    66  63  88 E5        29.98F
LURAY*         CLOUDY    70  64  83 NE7       29.98S
NEW MARKET*    CLOUDY   N/A N/A N/A N8        29.97F
STAUNTON*      CLOUDY    68  62  81 N6        29.98S
WAYNESBORO*    MOCLDY    70  63  78 SE6       29.97F

$$

WVZ021-048>050-054>055-282100-
EASTERN WEST VIRGINIA PANHANDLE

CITY           SKY/WX    TMP DP  RH WIND       PRES   REMARKS
MARTINSBURG    CLOUDY    67  59  75 E8        30.01F
PETERSBURG*    CLOUDY    66  56  68 N6        29.98F

$$

VAZ036>039-050-282100-
CENTRAL FOOTHILLS

CITY           SKY/WX    TMP DP  RH WIND       PRES   REMARKS
CHARLOTTESVILL CLOUDY    68  63  84 NE9       29.97S HAZE
CULPEPER*      CLOUDY    66  66  99 N3        29.99S
ORANGE*          N/A     66  66 100 N6        29.99R FOG
GORDONSVILLE*  CLOUDY    66  66 100 NE9       29.96S FOG
WARRENTON*     CLOUDY    68  63  84 NE3       29.97F

$$

VAZ055>057-282100-
NORTH AND CENTRAL PIEDMONT

CITY           SKY/WX    TMP DP  RH WIND       PRES   REMARKS
FREDERICKSBRG* LGT RAIN  69  69 100 NE7       29.95S
STAFFORD*      CLOUDY    67  67  97 NE7       30.01S

$$

NCZ024-NYZ072-PAZ021-071-VAZ022-071-282100-
OTHER REGIONAL OBSERVATIONS

CITY           SKY/WX    TMP DP  RH WIND       PRES   REMARKS
NEW YORK CITY  CLOUDY    66  55  67 E15G26    30.15F
PHILADELPHIA   CLOUDY    71  63  75 E13       30.07S
PITTSBURGH     PTSUNNY   74  52  46 SE13G20   29.90F
ROANOKE        PTSUNNY   76  64  66 E10       29.92F THUNDER
RICHMOND       PTSUNNY   75  71  87 SE13      29.91F
RALEIGH        CLOUDY    82  69  64 S9        29.91F

$$

ANZ530>537-282100-
MARINE OBSERVATIONS

STATION/POSITION TIME  TEMP    WIND        PRES
                       AIR SEA DIR/SP/G
                 (UTC) (F)     (DEG/KT/KT) (MB)
THOMAS PT LIGHT  2000   71 74   90/ 14/ 16 1016.8F
BALT KEY BRIDGE  1948   68      40/  8/ 10 1016.3F
COVE POINT       1948   70     140/ 19/ 24 1015.4F
LEWISETTA        1948   72 73  130/ 17/ 22 1014.1F
SOLOMONS ISLAND  1948   71 75  110/ 18/ 22   N/A
PINEY POINT      1948          130/ 16/ 19   N/A

$$




USA.gov is the U.S. government's official web portal to all federal, state and local government web resources and services.